Regional Weather Roundup
Issued by NWS

Home | Current Version | Previous Version | Text Only | Print | Product List | Glossary On
Versions: 1 2 3 4 5 6 7 8 9 10 11 12 13 14 15 16 17 18 19 20 21 22 23 24 25 26 27 28 29 30 31 32 33 34 35 36 37 38 39 40 41 42 43 44 45 46 47 48 49 50
000
ASUS43 KOAX 211902
RWRNE

WEATHER ROUNDUP FOR NEBRASKA
NATIONAL WEATHER SERVICE OMAHA NE
200 PM CDT FRI JUL 21 2017

NOTES: SATELLITE DATA IS BEING USED TO AUGMENT CLOUD COVER ABOVE
       12000 FEET.
       "FAIR" INDICATES FEW OR NO CLOUDS BELOW 12,000 FEET WITH NO
       SIGNIFICANT WEATHER AND/OR OBSTRUCTIONS TO VISIBILITY.


NEZ001>004-019>022-054>056-212000-
NEBRASKA PANHANDLE

CITY           SKY/WX    TMP DP  RH WIND       PRES   REMARKS
SCOTTSBLUFF    SUNNY     95  54  25 NW8G18    30.00F HX  93
ALLIANCE       CLOUDY    94  52  24 NW13      29.98F HX  91
CHADRON        SUNNY     95  50  21 N15G21    29.93S HX  92
GORDON         FAIR      88  58  35 W10G16    29.93F
KIMBALL        SUNNY     90  48  23 N13       30.09F
SIDNEY         SUNNY     96  45  17 N9        30.04F HX  92
$$

NEZ057>060-069>072-079>082-212000-
SOUTHWEST NEBRASKA

CITY           SKY/WX    TMP DP  RH WIND       PRES   REMARKS
NORTH PLATTE   SUNNY     99  63  30 SW10      29.87F HX 101
IMPERIAL       SUNNY     99  51  19 MISG      29.93F HX  96
LEXINGTON      SUNNY     94  77  57 SW6       29.85F HX 107
MCCOOK         SUNNY    102  69  34 VRB3      29.86F HX 109
OGALLALA       SUNNY    100  49  18 NW10G23   29.93F HX  96
$$

NEZ005>010-023>029-035>040-094-212000-
NORTH CENTRAL NEBRASKA

CITY           SKY/WX    TMP DP  RH WIND       PRES   REMARKS
VALENTINE      SUNNY    101  57  23 NW7       29.83F HX 100
AINSWORTH      SUNNY     92  71  49 SW3       29.84F HX  99
BROKEN BOW     SUNNY     98  71  41 SW6       29.84F HX 106
O`NEILL        SUNNY     88  71  56 CALM      29.83S HX  93
ORD            SUNNY     95  72  47 W8        29.80F HX 103
THEDFORD       SUNNY     99  58  25 W10G20    29.87F HX  98
$$

NEZ041-046>049-061>064-073>077-083>087-212000-
SOUTH CENTRAL NEBRASKA

CITY           SKY/WX    TMP DP  RH WIND       PRES   REMARKS
GRAND ISLAND   SUNNY     93  72  50 SW15      29.83S HX 101
AURORA         SUNNY     91  71  52 SW9G17    29.82S HX  96
HASTINGS       SUNNY     91  69  48 SW12G20   29.84F HX  96
HEBRON         SUNNY     98  69  39 S15G23    29.81F HX 104
HOLDREGE       SUNNY     91  67  44 SW7       29.86S HX  95
KEARNEY        SUNNY     91  72  53 SW12      29.85R HX  98
YORK           SUNNY     90  75  62 SW10      29.82S HX 100
$$

NEZ011>018-030>034-042>045-212000-
NORTHEAST NEBRASKA

CITY           SKY/WX    TMP DP  RH WIND       PRES   REMARKS
NORFOLK        SUNNY     93  68  43 SW15      29.78F HX  97
ALBION         SUNNY     95  73  47 S12       29.79F HX 104
BLAIR          SUNNY     94  73  50 S16G22    29.79F HX 103
COLUMBUS       SUNNY     92  73  53 S9        29.80F HX 100
FREMONT        SUNNY     95  69  43 SW9G18    29.78F HX 101
TEKAMAH        CLOUDY    94  72  48 S10       29.76F HX 102
WAYNE          CLOUDY    90  74  58 SE10      29.80R HX  99
$$

NEZ050>053-065>068-078-088>093-212000-
SOUTHEAST NEBRASKA

CITY           SKY/WX    TMP DP  RH WIND       PRES   REMARKS
LINCOLN        SUNNY     97  73  45 SW16      29.80S HX 107
OMAHA EPPLEY   MOSUNNY   99  72  41 S18G25    29.77F HX 108
BEATRICE       SUNNY    100  71  38 S17       29.80F HX 109
NEBRASKA CITY  SUNNY     94  78  59 S12G20    29.82F HX 109
PLATTSMOUTH    SUNNY     94  75  54 S10       29.81F HX 104
$$

NEZ044-045-051>053-067-212000-
OMAHA AREA

CITY           SKY/WX    TMP DP  RH WIND       PRES   REMARKS
OMAHA EPPLEY   MOSUNNY   99  72  41 S18G25    29.77F HX 108
BLAIR          SUNNY     94  73  50 S16G22    29.79F HX 103
FREMONT        SUNNY     95  69  43 SW9G18    29.78F HX 101
MILLARD        SUNNY     98  75  48 S10G18    29.78F HX 111
OFFUTT AFB     SUNNY     96  75  50 S12       29.78F HX 107
PLATTSMOUTH    SUNNY     94  75  54 S10       29.81F HX 104
WAHOO          FAIR      95  70  43 S14       29.79F HX 101
$$




USA.gov is the U.S. government's official web portal to all federal, state and local government web resources and services.